This is the latest recevied weather packets stored in our database for station/object N4DWK. If no packets are shown the sender has not sent any weather packets the latest 10 day(s).
| Time | Temp. | Humidity | Pressure | Rain* | Wind** | Luminosity | Snow |
|---|---|---|---|---|---|---|---|
| 1777830308 | 16.67° C | 38% | 1017.5 hPa | 0 mm | - | 684 W/m² | - |
| 1777830007 | 17.22° C | 39% | 1017.6 hPa | 0 mm | - | 687 W/m² | - |
| 1777829707 | 16.11° C | 38% | 1017.7 hPa | 0 mm | - | 687 W/m² | - |
| 1777829408 | 16.67° C | 41% | 1017.7 hPa | 0 mm | - | 689 W/m² | - |
| 1777829107 | 16.11° C | 38% | 1017.8 hPa | 0 mm | - | 687 W/m² | - |
| 1777828808 | 16.11° C | 39% | 1017.8 hPa | 0 mm | - | 691 W/m² | - |
| 1777828507 | 16.11° C | 39% | 1017.8 hPa | 0 mm | - | 687 W/m² | - |
| 1777828207 | 16.11° C | 40% | 1017.9 hPa | 0 mm | - | 687 W/m² | - |
| 1777827907 | 16.11° C | 39% | 1018.1 hPa | 0 mm | - | 691 W/m² | - |
| 1777827607 | 15.56° C | 40% | 1018 hPa | 0 mm | - | 689 W/m² | - |
| 1777827307 | 15.56° C | 40% | 1018 hPa | 0 mm | - | 687 W/m² | - |
| 1777827008 | 15° C | 39% | 1018.1 hPa | 0 mm | - | 686 W/m² | - |
| 1777826707 | 15° C | 40% | 1018.2 hPa | 0 mm | - | 684 W/m² | - |
| 1777826408 | 15.56° C | 40% | 1018.2 hPa | 0 mm | - | 686 W/m² | - |
| 1777826107 | 14.44° C | 42% | 1018.2 hPa | 0 mm | - | 682 W/m² | - |
| 1777825807 | 14.44° C | 43% | 1018.3 hPa | 0 mm | - | 677 W/m² | - |
| 1777825507 | 13.89° C | 43% | 1018.4 hPa | 0 mm | - | 67 W/m² | - |
| 1777825207 | 13.89° C | 43% | 1018.5 hPa | 0 mm | - | 63 W/m² | - |
| 1777824907 | 13.89° C | 43% | 1018.6 hPa | 0 mm | - | 83 W/m² | - |
| 1777824607 | 13.33° C | 42% | 1018.6 hPa | 0 mm | - | 65 W/m² | - |
| 1777824307 | 13.33° C | 42% | 1018.6 hPa | 0 mm | - | 139 W/m² | - |
| 1777824007 | 13.33° C | 43% | 1018.8 hPa | 0 mm | - | 62 W/m² | - |
| 1777823707 | 13.33° C | 44% | 1018.6 hPa | 0 mm | - | 74 W/m² | - |
| 1777823408 | 12.78° C | 43% | 1018.7 hPa | 0 mm | - | 69 W/m² | - |
| 1777823108 | 12.78° C | 43% | 1018.7 hPa | 0 mm | - | 62 W/m² | - |
* Rain latest hour (hover to see other rain measurements)
** Current wind speed in m/s (hover to see current wind gust speed)